Time,TemperatureF,DewpointF,PressureIn,WindDirection,WindDirectionDegrees,WindSpeedMPH,WindSpeedGustMPH,Humidity,HourlyPrecipIn,Conditions,Clouds,dailyrainin,SoftwareType,DateUTC
2013-03-16 00:00:00,45.0,28.0,29.72,NW,326,4.9,28.2,51,0.00,,---,0.00,VWS V14.01,2013-03-16 04:00:00,
2013-03-16 00:01:00,43.3,29.5,29.72,North,352,7.7,8.8,58,0.00,,---,0.00,VWS V14.01,2013-03-16 04:01:00,
2013-03-16 00:02:00,43.2,29.4,29.72,North,353,5.5,8.9,58,0.00,,---,0.00,VWS V14.01,2013-03-16 04:02:00,
2013-03-16 00:05:00,44.7,28.0,29.72,NW,316,4.8,4.9,52,0.00,,---,0.00,VWS V14.01,2013-03-16 04:05:00,
2013-03-16 00:10:00,44.7,28.6,29.72,NNW,330,6.0,6.0,53,0.00,,---,0.00,VWS V14.01,2013-03-16 04:10:00,
2013-03-16 00:15:00,45.0,28.8,29.72,NW,318,4.0,4.4,53,0.00,,---,0.00,VWS V14.01,2013-03-16 04:15:00,
2013-03-16 00:20:00,45.0,29.1,29.72,NW,322,1.9,2.3,54,0.00,,---,0.00,VWS V14.01,2013-03-16 04:20:00,
2013-03-16 00:25:00,44.2,28.4,29.72,West,274,0.8,1.1,54,0.00,,---,0.00,VWS V14.01,2013-03-16 04:25:00,
2013-03-16 00:30:00,44.5,28.7,29.72,West,266,0.0,0.2,54,0.00,,---,0.00,VWS V14.01,2013-03-16 04:30:00,
2013-03-16 00:35:00,44.7,29.3,29.72,West,266,0.0,0.0,54,0.00,,---,0.00,VWS V14.01,2013-03-16 04:35:00,
2013-03-16 00:40:00,44.3,29.5,29.72,NW,308,2.2,2.2,56,0.00,,---,0.00,VWS V14.01,2013-03-16 04:40:00,
2013-03-16 00:45:00,43.9,29.5,29.72,NNW,335,4.0,4.8,57,0.00,,---,0.00,VWS V14.01,2013-03-16 04:45:00,
2013-03-16 00:48:00,42.6,29.5,29.73,NE,41,5.2,131.9,60,0.00,,---,0.00,VWS V14.01,2013-03-16 04:48:00,
2013-03-16 00:50:00,43.8,29.8,29.72,NNW,330,4.2,4.2,58,0.00,,---,0.00,VWS V14.01,2013-03-16 04:50:00,
2013-03-16 00:55:00,43.4,29.7,29.72,NNW,346,6.7,6.7,58,0.00,,---,0.00,VWS V14.01,2013-03-16 04:55:00,
2013-03-16 01:00:00,43.7,29.8,29.72,North,353,5.2,8.9,58,0.00,,---,0.00,VWS V14.01,2013-03-16 05:00:00,
2013-03-16 01:01:00,42.4,29.4,29.73,NNE,17,7.6,131.9,60,0.00,,---,0.00,VWS V14.01,2013-03-16 05:01:00,
2013-03-16 01:05:00,42.9,29.2,29.71,NNW,329,5.7,10.7,58,0.00,,---,0.00,VWS V14.01,2013-03-16 05:05:00,
2013-03-16 01:10:00,43.2,29.3,29.72,North,349,6.8,12.2,58,0.00,,---,0.00,VWS V14.01,2013-03-16 05:10:00,
2013-03-16 01:15:00,43.3,29.4,29.72,West,281,3.9,12.2,58,0.00,,---,0.00,VWS V14.01,2013-03-16 05:15:00,
2013-03-16 01:20:00,43.4,29.5,29.72,NW,322,2.7,12.2,58,0.00,,---,0.00,VWS V14.01,2013-03-16 05:20:00,
2013-03-16 01:25:00,43.6,29.8,29.72,NNW,329,5.7,12.2,58,0.00,,---,0.00,VWS V14.01,2013-03-16 05:25:00,
2013-03-16 01:30:00,43.3,29.5,29.72,NW,304,2.7,131.9,58,0.00,,---,0.00,VWS V14.01,2013-03-16 05:30:00,
2013-03-16 01:35:00,43.9,30.0,29.72,NW,312,5.4,131.9,58,0.00,,---,0.00,VWS V14.01,2013-03-16 05:35:00,
2013-03-16 01:40:00,43.4,29.6,29.72,NW,314,7.5,131.9,58,0.00,,---,0.00,VWS V14.01,2013-03-16 05:40:00,
2013-03-16 01:45:00,42.3,28.7,29.72,NNW,336,6.0,131.9,58,0.00,,---,0.00,VWS V14.01,2013-03-16 05:45:00,
2013-03-16 01:50:00,43.0,29.4,29.72,NW,323,6.5,131.9,58,0.00,,---,0.00,VWS V14.01,2013-03-16 05:50:00,
2013-03-16 01:55:00,42.2,29.0,29.73,North,1,5.8,131.9,59,0.00,,---,0.00,VWS V14.01,2013-03-16 05:55:00,
2013-03-16 02:00:00,42.3,29.4,29.73,North,356,6.6,131.9,60,0.00,,---,0.00,VWS V14.01,2013-03-16 06:00:00,
2013-03-16 02:05:00,42.1,29.8,29.73,NNE,14,5.3,131.9,61,0.00,,---,0.00,VWS V14.01,2013-03-16 06:05:00,
2013-03-16 02:10:00,41.4,29.3,29.73,NNE,28,4.7,131.9,62,0.00,,---,0.00,VWS V14.01,2013-03-16 06:10:00,
2013-03-16 02:15:00,41.4,29.5,29.73,NNE,14,4.5,131.9,62,0.00,,---,0.00,VWS V14.01,2013-03-16 06:15:00,
2013-03-16 02:18:00,32.8,32.8,29.77,ENE,63,0.0,131.9,100,0.01,,---,0.01,VWS V14.01,2013-03-16 06:18:00,
2013-03-16 02:20:00,41.0,29.4,29.73,NNE,25,5.2,131.9,63,0.00,,---,0.00,VWS V14.01,2013-03-16 06:20:00,
2013-03-16 02:24:00,39.2,28.7,29.74,North,359,6.8,131.9,66,0.00,,---,0.00,VWS V14.01,2013-03-16 06:24:00,
2013-03-16 02:25:00,41.3,29.8,29.73,NNE,17,3.4,131.9,63,0.00,,---,0.00,VWS V14.01,2013-03-16 06:25:00,
2013-03-16 02:29:00,40.9,29.5,29.73,NNE,25,4.8,131.9,64,0.00,,---,0.00,VWS V14.01,2013-03-16 06:29:00,
2013-03-16 02:34:00,41.0,29.6,29.74,NNW,345,5.0,131.9,64,0.00,,---,0.00,VWS V14.01,2013-03-16 06:34:00,
2013-03-16 02:38:00,39.2,28.7,29.74,NNE,22,7.4,131.9,66,0.00,,---,0.00,VWS V14.01,2013-03-16 06:38:00,
2013-03-16 02:39:00,41.0,29.5,29.74,North,353,1.1,131.9,63,0.00,,---,0.00,VWS V14.01,2013-03-16 06:39:00,
2013-03-16 02:40:00,38.7,28.2,29.74,North,350,4.8,131.9,66,0.00,,---,0.00,VWS V14.01,2013-03-16 06:40:00,
2013-03-16 02:41:00,39.3,28.8,29.74,NNE,20,4.5,131.9,66,0.00,,---,0.00,VWS V14.01,2013-03-16 06:41:00,
2013-03-16 02:44:00,41.0,29.6,29.74,North,3,0.0,131.9,64,0.00,,---,0.00,VWS V14.01,2013-03-16 06:44:00,
2013-03-16 02:49:00,40.7,29.6,29.74,North,4,4.5,131.9,64,0.00,,---,0.00,VWS V14.01,2013-03-16 06:49:00,
2013-03-16 02:54:00,40.4,29.1,29.74,WSW,257,6.7,131.9,64,0.00,,---,0.00,VWS V14.01,2013-03-16 06:54:00,
2013-03-16 02:59:00,40.0,28.8,29.74,North,3,7.6,131.9,64,0.00,,---,0.00,VWS V14.01,2013-03-16 06:59:00,
2013-03-16 03:04:00,40.2,28.9,29.74,North,350,7.6,131.9,64,0.00,,---,0.00,VWS V14.01,2013-03-16 07:04:00,
2013-03-16 03:09:00,39.7,28.6,29.74,NNW,342,5.8,131.9,64,0.00,,---,0.00,VWS V14.01,2013-03-16 07:09:00,
2013-03-16 03:14:00,39.2,28.1,29.74,North,0,5.4,131.9,64,0.00,,---,0.00,VWS V14.01,2013-03-16 07:14:00,
2013-03-16 03:19:00,39.6,28.6,29.74,NNE,13,4.5,131.9,64,0.00,,---,0.00,VWS V14.01,2013-03-16 07:19:00,
2013-03-16 03:24:00,38.9,28.0,29.74,North,0,4.8,131.9,65,0.00,,---,0.00,VWS V14.01,2013-03-16 07:24:00,
2013-03-16 03:29:00,39.2,28.5,29.74,NNW,340,8.0,131.9,65,0.00,,---,0.00,VWS V14.01,2013-03-16 07:29:00,
2013-03-16 03:34:00,39.5,29.0,29.74,North,6,4.1,131.9,66,0.00,,---,0.00,VWS V14.01,2013-03-16 07:34:00,
2013-03-16 03:39:00,39.4,28.9,29.74,North,10,5.5,131.9,66,0.00,,---,0.00,VWS V14.01,2013-03-16 07:39:00,
2013-03-16 03:44:00,39.0,28.2,29.75,North,1,6.3,131.9,65,0.00,,---,0.00,VWS V14.01,2013-03-16 07:44:00,
2013-03-16 03:49:00,38.7,28.1,29.75,NNE,24,3.4,131.9,65,0.00,,---,0.00,VWS V14.01,2013-03-16 07:49:00,
2013-03-16 03:54:00,38.2,27.5,29.75,NNW,339,6.0,131.9,65,0.00,,---,0.00,VWS V14.01,2013-03-16 07:54:00,
2013-03-16 03:59:00,38.1,27.5,29.75,NNW,342,5.7,131.9,65,0.00,,---,0.00,VWS V14.01,2013-03-16 07:59:00,
2013-03-16 04:04:00,37.8,27.1,29.75,North,4,7.4,131.9,65,0.00,,---,0.00,VWS V14.01,2013-03-16 08:04:00,
2013-03-16 04:09:00,38.0,27.3,29.75,North,359,7.2,131.9,65,0.00,,---,0.00,VWS V14.01,2013-03-16 08:09:00,
2013-03-16 04:14:00,37.9,27.1,29.75,NNW,343,4.0,131.9,65,0.00,,---,0.00,VWS V14.01,2013-03-16 08:14:00,
2013-03-16 04:19:00,37.9,27.2,29.75,NNW,336,4.7,131.9,65,0.00,,---,0.00,VWS V14.01,2013-03-16 08:19:00,
2013-03-16 04:24:00,37.7,27.1,29.75,North,354,6.5,131.9,65,0.00,,---,0.00,VWS V14.01,2013-03-16 08:24:00,
2013-03-16 04:29:00,37.6,27.1,29.75,North,359,4.1,131.9,65,0.00,,---,0.00,VWS V14.01,2013-03-16 08:29:00,
2013-03-16 04:34:00,37.8,27.1,29.75,NNE,24,3.5,131.9,65,0.00,,---,0.00,VWS V14.01,2013-03-16 08:34:00,
2013-03-16 04:39:00,37.4,26.6,29.75,ESE,108,0.0,131.9,65,0.00,,---,0.00,VWS V14.01,2013-03-16 08:39:00,
2013-03-16 04:44:00,37.7,26.9,29.76,SE,135,1.7,131.9,65,0.00,,---,0.00,VWS V14.01,2013-03-16 08:44:00,
2013-03-16 04:49:00,37.4,26.5,29.76,NNE,14,5.3,131.9,64,0.00,,---,0.00,VWS V14.01,2013-03-16 08:49:00,
2013-03-16 04:54:00,37.6,26.7,29.76,North,3,5.2,131.9,64,0.00,,---,0.00,VWS V14.01,2013-03-16 08:54:00,
2013-03-16 04:59:00,37.6,26.6,29.76,North,356,3.4,131.9,64,0.00,,---,0.00,VWS V14.01,2013-03-16 08:59:00,
2013-03-16 05:04:00,37.2,26.0,29.76,North,350,4.2,131.9,64,0.00,,---,0.00,VWS V14.01,2013-03-16 09:04:00,
2013-03-16 05:06:00,36.1,22.5,29.78,NNE,13,4.8,131.9,57,0.00,,---,0.00,VWS V14.01,2013-03-16 09:06:00,
2013-03-16 05:09:00,37.0,26.0,29.76,North,4,3.3,131.9,64,0.00,,---,0.00,VWS V14.01,2013-03-16 09:09:00,
2013-03-16 05:14:00,36.9,25.9,29.76,North,359,5.0,131.9,64,0.00,,---,0.00,VWS V14.01,2013-03-16 09:14:00,
2013-03-16 05:19:00,37.1,25.6,29.76,North,359,6.0,131.9,63,0.00,,---,0.00,VWS V14.01,2013-03-16 09:19:00,
2013-03-16 05:24:00,36.8,25.3,29.76,North,4,5.3,131.9,63,0.00,,---,0.00,VWS V14.01,2013-03-16 09:24:00,
2013-03-16 05:29:00,36.9,25.3,29.76,North,8,5.5,131.9,62,0.00,,---,0.00,VWS V14.01,2013-03-16 09:29:00,
2013-03-16 05:34:00,36.9,25.3,29.76,NNE,18,3.7,131.9,62,0.00,,---,0.00,VWS V14.01,2013-03-16 09:34:00,
2013-03-16 05:39:00,36.8,24.9,29.76,North,7,5.9,131.9,62,0.00,,---,0.00,VWS V14.01,2013-03-16 09:39:00,
2013-03-16 05:44:00,36.5,24.4,29.77,North,10,4.8,131.9,61,0.00,,---,0.00,VWS V14.01,2013-03-16 09:44:00,
2013-03-16 05:49:00,36.4,23.9,29.76,North,356,6.6,131.9,60,0.00,,---,0.00,VWS V14.01,2013-03-16 09:49:00,
2013-03-16 05:54:00,36.5,23.6,29.77,North,6,7.6,131.9,59,0.00,,---,0.00,VWS V14.01,2013-03-16 09:54:00,
2013-03-16 05:59:00,36.9,23.8,29.77,North,10,7.3,131.9,59,0.00,,---,0.00,VWS V14.01,2013-03-16 09:59:00,
2013-03-16 06:04:00,36.4,23.0,29.77,North,3,4.7,131.9,58,0.00,,---,0.00,VWS V14.01,2013-03-16 10:04:00,
2013-03-16 06:09:00,36.7,23.4,29.77,North,8,6.6,131.9,58,0.00,,---,0.00,VWS V14.01,2013-03-16 10:09:00,
2013-03-16 06:10:00,36.1,22.5,29.78,NNE,28,4.2,131.9,57,0.00,,---,0.00,VWS V14.01,2013-03-16 10:10:00,
2013-03-16 06:11:00,36.0,22.5,29.78,North,357,7.4,131.9,58,0.00,,---,0.00,VWS V14.01,2013-03-16 10:11:00,
2013-03-16 06:12:00,36.2,22.6,29.78,NNE,14,7.6,131.9,57,0.00,,---,0.00,VWS V14.01,2013-03-16 10:12:00,
2013-03-16 06:14:00,36.2,22.9,29.77,North,11,8.3,131.9,58,0.00,,---,0.00,VWS V14.01,2013-03-16 10:14:00,
2013-03-16 06:19:00,36.1,22.5,29.77,North,7,8.3,131.9,57,0.00,,---,0.00,VWS V14.01,2013-03-16 10:19:00,
2013-03-16 06:24:00,36.2,22.7,29.77,North,359,6.9,131.9,58,0.00,,---,0.00,VWS V14.01,2013-03-16 10:24:00,
2013-03-16 06:29:00,35.9,22.3,29.77,North,354,8.9,131.9,57,0.00,,---,0.00,VWS V14.01,2013-03-16 10:29:00,
2013-03-16 06:34:00,36.0,22.6,29.77,NNW,346,9.4,131.9,58,0.00,,---,0.00,VWS V14.01,2013-03-16 10:34:00,
2013-03-16 06:39:00,35.8,22.5,29.77,North,1,4.4,131.9,58,0.00,,---,0.00,VWS V14.01,2013-03-16 10:39:00,
2013-03-16 06:44:00,36.0,22.5,29.77,North,356,5.5,131.9,58,0.00,,---,0.00,VWS V14.01,2013-03-16 10:44:00,
2013-03-16 06:49:00,35.9,22.3,29.77,North,6,5.9,131.9,57,0.00,,---,0.00,VWS V14.01,2013-03-16 10:49:00,
2013-03-16 06:54:00,35.9,22.5,29.77,North,353,7.6,131.9,58,0.00,,---,0.00,VWS V14.01,2013-03-16 10:54:00,
2013-03-16 06:59:00,35.8,22.6,29.77,North,352,8.9,131.9,58,0.00,,---,0.00,VWS V14.01,2013-03-16 10:59:00,
2013-03-16 07:04:00,35.4,22.0,29.77,NNE,15,8.3,131.9,58,0.00,,---,0.00,VWS V14.01,2013-03-16 11:04:00,
2013-03-16 07:09:00,35.8,22.1,29.78,North,4,6.2,131.9,57,67.01,,---,0.00,VWS V14.01,2013-03-16 11:09:00,
2013-03-16 07:14:00,36.1,22.3,29.78,North,353,8.3,131.9,57,0.00,,---,0.00,VWS V14.01,2013-03-16 11:14:00,
2013-03-16 07:19:00,36.1,22.2,29.77,NNW,346,4.3,131.9,57,0.00,,---,0.00,VWS V14.01,2013-03-16 11:19:00,
2013-03-16 07:24:00,36.4,22.8,29.78,North,359,3.9,131.9,57,0.00,,---,0.00,VWS V14.01,2013-03-16 11:24:00,
2013-03-16 07:29:00,36.0,22.4,29.78,NNE,22,3.4,131.9,57,0.00,,---,0.00,VWS V14.01,2013-03-16 11:29:00,
2013-03-16 07:34:00,35.9,22.2,29.78,North,4,4.2,131.9,57,0.00,,---,0.00,VWS V14.01,2013-03-16 11:34:00,
2013-03-16 07:39:00,36.1,22.4,29.78,North,11,5.8,131.9,57,66.69,,---,0.00,VWS V14.01,2013-03-16 11:39:00,
2013-03-16 07:44:00,36.3,22.5,29.78,NE,42,4.7,131.9,57,0.00,,---,0.00,VWS V14.01,2013-03-16 11:44:00,
2013-03-16 07:49:00,36.4,22.5,29.79,North,359,4.3,131.9,57,0.00,,---,0.00,VWS V14.01,2013-03-16 11:49:00,
2013-03-16 07:54:00,36.3,23.0,29.79,NNE,24,4.2,131.9,58,0.00,,---,0.00,VWS V14.01,2013-03-16 11:54:00,
2013-03-16 07:59:00,36.5,23.0,29.79,North,3,4.0,131.9,58,0.00,,---,0.00,VWS V14.01,2013-03-16 11:59:00,
2013-03-16 08:04:00,36.3,22.6,29.79,North,3,6.0,131.9,57,66.37,,---,0.00,VWS V14.01,2013-03-16 12:04:00,
2013-03-16 08:09:00,36.3,22.6,29.80,NNE,14,5.2,131.9,57,0.00,,---,0.00,VWS V14.01,2013-03-16 12:09:00,
2013-03-16 08:14:00,36.6,23.1,29.80,NE,41,3.7,131.9,58,0.00,,---,0.00,VWS V14.01,2013-03-16 12:14:00,
2013-03-16 08:19:00,36.7,23.6,29.79,NNE,30,6.0,131.9,59,0.00,,---,0.00,VWS V14.01,2013-03-16 12:19:00,
2013-03-16 08:24:00,36.5,23.7,29.79,NE,44,4.0,131.9,59,0.00,,---,0.00,VWS V14.01,2013-03-16 12:24:00,
2013-03-16 08:29:00,36.1,23.2,29.79,NNE,28,5.7,131.9,59,0.00,,---,0.00,VWS V14.01,2013-03-16 12:29:00,
2013-03-16 08:34:00,36.3,23.5,29.80,NNE,14,7.1,131.9,59,0.00,,---,0.00,VWS V14.01,2013-03-16 12:34:00,
2013-03-16 08:39:00,36.2,23.4,29.79,North,6,8.7,131.9,59,0.00,,---,0.00,VWS V14.01,2013-03-16 12:39:00,
2013-03-16 08:44:00,35.9,23.7,29.79,North,3,7.1,131.9,61,0.00,,---,0.00,VWS V14.01,2013-03-16 12:44:00,
2013-03-16 08:49:00,35.7,23.1,29.79,NE,34,8.2,131.9,60,0.00,,---,0.00,VWS V14.01,2013-03-16 12:49:00,
2013-03-16 08:54:00,36.0,23.6,29.79,NNE,27,4.3,131.9,60,0.00,,---,0.00,VWS V14.01,2013-03-16 12:54:00,
2013-03-16 08:59:00,36.1,23.5,29.79,NE,34,7.1,131.9,60,0.00,,---,0.00,VWS V14.01,2013-03-16 12:59:00,
2013-03-16 09:04:00,36.0,22.8,29.78,North,349,7.6,131.9,58,0.00,,---,0.00,VWS V14.01,2013-03-16 13:04:00,
2013-03-16 09:09:00,36.2,23.2,29.79,North,4,5.3,131.9,59,0.00,,---,0.00,VWS V14.01,2013-03-16 13:09:00,
2013-03-16 09:14:00,36.3,22.8,29.79,NNE,14,3.9,131.9,58,0.00,,---,0.00,VWS V14.01,2013-03-16 13:14:00,
2013-03-16 09:19:00,36.8,23.3,29.78,NNE,14,6.0,131.9,58,0.00,,---,0.00,VWS V14.01,2013-03-16 13:19:00,
2013-03-16 09:23:00,36.5,22.5,29.78,NNE,22,10.7,131.9,56,0.00,,---,0.00,VWS V14.01,2013-03-16 13:23:00,
2013-03-16 09:28:00,36.4,22.8,29.78,North,8,9.3,131.9,57,0.00,,---,0.00,VWS V14.01,2013-03-16 13:28:00,
2013-03-16 09:33:00,37.1,23.2,29.78,NW,319,2.9,131.9,57,0.00,,---,0.00,VWS V14.01,2013-03-16 13:33:00,
2013-03-16 09:38:00,36.4,21.7,29.78,NNE,27,7.3,131.9,55,0.00,,---,0.00,VWS V14.01,2013-03-16 13:38:00,
2013-03-16 09:43:00,36.4,21.5,29.78,NE,48,6.0,131.9,54,0.00,,---,0.00,VWS V14.01,2013-03-16 13:43:00,
2013-03-16 09:48:00,36.5,21.6,29.78,NE,35,5.5,131.9,54,0.00,,---,0.00,VWS V14.01,2013-03-16 13:48:00,
2013-03-16 09:53:00,36.5,21.3,29.78,NNE,25,8.1,131.9,54,66.85,,---,0.00,VWS V14.01,2013-03-16 13:53:00,
2013-03-16 09:58:00,36.9,22.0,29.78,North,4,7.5,131.9,54,0.00,,---,0.00,VWS V14.01,2013-03-16 13:58:00,
2013-03-16 10:03:00,36.3,21.4,29.78,NNE,17,8.6,131.9,54,0.00,,---,0.00,VWS V14.01,2013-03-16 14:03:00,
2013-03-16 10:08:00,36.7,22.1,29.78,NNE,20,3.4,131.9,55,0.00,,---,0.00,VWS V14.01,2013-03-16 14:08:00,
2013-03-16 10:13:00,36.8,22.1,29.78,ENE,60,3.0,131.9,55,0.00,,---,0.00,VWS V14.01,2013-03-16 14:13:00,
2013-03-16 10:18:00,36.8,21.9,29.79,ESE,112,2.9,131.9,54,66.53,,---,0.00,VWS V14.01,2013-03-16 14:18:00,
2013-03-16 10:23:00,36.9,21.8,29.79,North,10,2.9,131.9,54,0.00,,---,0.00,VWS V14.01,2013-03-16 14:23:00,
2013-03-16 10:28:00,37.2,22.0,29.79,NE,39,3.2,131.9,54,0.00,,---,0.00,VWS V14.01,2013-03-16 14:28:00,
2013-03-16 10:33:00,37.3,22.3,29.79,NE,35,0.0,131.9,54,0.00,,---,0.00,VWS V14.01,2013-03-16 14:33:00,
2013-03-16 10:38:00,37.0,21.8,29.79,ENE,66,6.5,131.9,54,0.00,,---,0.00,VWS V14.01,2013-03-16 14:38:00,
2013-03-16 10:43:00,37.4,22.8,29.79,NE,55,1.8,131.9,55,67.01,,---,0.00,VWS V14.01,2013-03-16 14:43:00,
2013-03-16 10:48:00,36.8,22.2,29.79,NNE,32,4.8,131.9,55,0.00,,---,0.00,VWS V14.01,2013-03-16 14:48:00,
2013-03-16 10:53:00,36.5,22.0,29.79,NNE,18,7.3,131.9,55,0.00,,---,0.00,VWS V14.01,2013-03-16 14:53:00,
2013-03-16 10:58:00,37.2,22.5,29.79,NNE,21,5.4,131.9,55,0.00,,---,0.00,VWS V14.01,2013-03-16 14:58:00,
2013-03-16 11:03:00,36.5,21.5,29.79,NE,38,5.5,131.9,54,0.00,,---,0.00,VWS V14.01,2013-03-16 15:03:00,
2013-03-16 11:08:00,37.2,21.8,29.79,NE,41,6.2,131.9,53,0.00,,---,0.00,VWS V14.01,2013-03-16 15:08:00,
2013-03-16 11:13:00,37.2,21.5,29.79,NE,37,0.9,131.9,53,0.00,,---,0.00,VWS V14.01,2013-03-16 15:13:00,
2013-03-16 11:18:00,37.0,21.2,29.79,NNW,336,1.1,131.9,52,67.33,,---,0.00,VWS V14.01,2013-03-16 15:18:00,
2013-03-16 11:23:00,37.3,21.7,29.79,NNW,339,2.9,131.9,53,0.00,,---,0.00,VWS V14.01,2013-03-16 15:23:00,
2013-03-16 11:28:00,37.0,22.1,29.79,ENE,62,6.0,131.9,54,0.00,,---,0.00,VWS V14.01,2013-03-16 15:28:00,
2013-03-16 11:33:00,37.2,22.7,29.79,NE,48,2.7,131.9,55,0.00,,---,0.00,VWS V14.01,2013-03-16 15:33:00,
2013-03-16 11:38:00,36.6,22.8,29.79,North,4,3.9,131.9,57,0.00,,---,0.00,VWS V14.01,2013-03-16 15:38:00,
2013-03-16 11:43:00,36.8,23.0,29.79,NE,53,1.2,131.9,57,67.17,,---,0.00,VWS V14.01,2013-03-16 15:43:00,
2013-03-16 11:48:00,37.1,23.4,29.79,NE,42,0.0,131.9,57,0.00,,---,0.00,VWS V14.01,2013-03-16 15:48:00,
2013-03-16 11:53:00,37.3,23.5,29.79,SW,224,3.1,131.9,57,67.01,,---,0.00,VWS V14.01,2013-03-16 15:53:00,
2013-03-16 11:58:00,37.3,24.1,29.79,WSW,240,1.7,131.9,58,0.00,,---,0.00,VWS V14.01,2013-03-16 15:58:00,
2013-03-16 12:03:00,37.0,23.8,29.79,SE,139,0.0,131.9,58,0.00,,---,0.00,VWS V14.01,2013-03-16 16:03:00,
2013-03-16 12:08:00,37.1,24.1,29.79,West,260,0.0,131.9,59,0.00,,---,0.00,VWS V14.01,2013-03-16 16:08:00,
2013-03-16 12:13:00,36.8,24.3,29.79,SSE,159,3.6,131.9,60,0.00,,---,0.00,VWS V14.01,2013-03-16 16:13:00,
2013-03-16 12:18:00,37.0,24.8,29.78,SSE,166,5.6,131.9,61,0.00,,---,0.00,VWS V14.01,2013-03-16 16:18:00,
2013-03-16 12:23:00,36.8,25.4,29.78,SSE,166,4.8,131.9,63,0.00,,---,0.00,VWS V14.01,2013-03-16 16:23:00,
2013-03-16 12:28:00,36.8,25.8,29.78,SSE,162,2.6,131.9,64,0.00,,---,0.00,VWS V14.01,2013-03-16 16:28:00,
2013-03-16 12:33:00,36.3,25.4,29.78,NNE,28,0.2,131.9,64,0.00,,---,0.00,VWS V14.01,2013-03-16 16:33:00,
2013-03-16 12:38:00,36.3,25.9,29.77,SE,127,3.2,131.9,66,0.00,,---,0.00,VWS V14.01,2013-03-16 16:38:00,
2013-03-16 12:43:00,36.3,26.8,29.77,ESE,117,5.0,131.9,68,0.00,,---,0.00,VWS V14.01,2013-03-16 16:43:00,
2013-03-16 12:48:00,35.7,27.1,29.77,South,183,1.9,131.9,70,0.00,,---,0.00,VWS V14.01,2013-03-16 16:48:00,
2013-03-16 12:53:00,35.5,27.4,29.77,SE,141,0.9,131.9,72,0.00,,---,0.00,VWS V14.01,2013-03-16 16:53:00,
2013-03-16 12:58:00,35.5,27.8,29.76,ESE,115,2.4,131.9,73,0.00,,---,0.00,VWS V14.01,2013-03-16 16:58:00,
2013-03-16 13:03:00,35.1,28.1,29.76,SSE,153,4.2,131.9,75,0.00,,---,0.00,VWS V14.01,2013-03-16 17:03:00,
2013-03-16 13:08:00,34.8,28.5,29.76,SSE,159,5.0,131.9,78,0.00,,---,0.00,VWS V14.01,2013-03-16 17:08:00,
2013-03-16 13:13:00,34.6,29.1,29.76,SSE,150,4.8,131.9,80,0.00,,---,0.00,VWS V14.01,2013-03-16 17:13:00,
2013-03-16 13:18:00,34.3,29.6,29.76,South,176,6.6,131.9,83,66.53,,---,0.00,VWS V14.01,2013-03-16 17:18:00,
2013-03-16 13:23:00,34.0,29.5,29.77,SE,124,0.8,131.9,83,0.00,,---,0.00,VWS V14.01,2013-03-16 17:23:00,
2013-03-16 13:28:00,33.9,30.0,29.76,SE,139,4.0,131.9,85,0.00,,---,0.00,VWS V14.01,2013-03-16 17:28:00,
2013-03-16 13:33:00,34.2,30.7,29.77,SSE,155,2.9,131.9,87,0.00,,---,0.00,VWS V14.01,2013-03-16 17:33:00,
2013-03-16 13:38:00,34.4,31.1,29.77,SE,125,0.0,131.9,88,0.00,,---,0.00,VWS V14.01,2013-03-16 17:38:00,
2013-03-16 13:43:00,33.9,31.1,29.77,East,87,2.7,131.9,89,0.00,,---,0.00,VWS V14.01,2013-03-16 17:43:00,
2013-03-16 13:48:00,33.9,31.3,29.77,East,90,3.4,131.9,90,0.00,,---,0.00,VWS V14.01,2013-03-16 17:48:00,
2013-03-16 13:53:00,33.9,31.6,29.76,East,80,3.3,131.9,91,0.00,,---,0.00,VWS V14.01,2013-03-16 17:53:00,
2013-03-16 13:58:00,33.7,31.9,29.75,East,87,3.0,131.9,93,0.00,,---,0.00,VWS V14.01,2013-03-16 17:58:00,
2013-03-16 14:03:00,33.6,32.3,29.75,East,101,3.1,131.9,95,0.00,,---,0.00,VWS V14.01,2013-03-16 18:03:00,
2013-03-16 14:08:00,33.0,31.9,29.74,ENE,69,7.1,131.9,96,0.00,,---,0.00,VWS V14.01,2013-03-16 18:08:00,
2013-03-16 14:13:00,33.1,32.1,29.74,ESE,104,5.1,131.9,96,0.00,,---,0.00,VWS V14.01,2013-03-16 18:13:00,
2013-03-16 14:18:00,33.1,32.1,29.75,North,3,0.0,131.9,96,0.00,,---,0.00,VWS V14.01,2013-03-16 18:18:00,
2013-03-16 14:23:00,33.2,32.2,29.74,East,87,3.2,131.9,96,0.00,,---,0.00,VWS V14.01,2013-03-16 18:23:00,
2013-03-16 14:28:00,32.9,32.0,29.74,ENE,76,3.8,131.9,96,0.00,,---,0.00,VWS V14.01,2013-03-16 18:28:00,
2013-03-16 14:33:00,33.7,32.8,29.74,East,98,0.6,131.9,96,0.00,,---,0.00,VWS V14.01,2013-03-16 18:33:00,
2013-03-16 14:38:00,33.3,32.4,29.74,NE,35,3.2,131.9,96,0.01,,---,0.01,VWS V14.01,2013-03-16 18:38:00,
2013-03-16 14:43:00,33.2,32.3,29.74,East,82,3.7,131.9,96,66.37,,---,0.01,VWS V14.01,2013-03-16 18:43:00,
2013-03-16 14:48:00,33.6,32.7,29.75,NE,56,2.1,131.9,97,0.01,,---,0.01,VWS V14.01,2013-03-16 18:48:00,
2013-03-16 14:53:00,32.9,32.1,29.75,NNE,32,4.2,131.9,97,0.01,,---,0.01,VWS V14.01,2013-03-16 18:53:00,
2013-03-16 14:58:00,33.0,32.3,29.75,NE,51,1.1,131.9,97,0.01,,---,0.01,VWS V14.01,2013-03-16 18:58:00,
2013-03-16 15:03:00,33.0,32.4,29.75,SE,132,1.7,131.9,98,0.01,,---,0.01,VWS V14.01,2013-03-16 19:03:00,
2013-03-16 15:08:00,32.9,32.4,29.74,East,91,2.9,131.9,98,0.01,,---,0.01,VWS V14.01,2013-03-16 19:08:00,
2013-03-16 15:13:00,32.9,32.5,29.74,ENE,69,0.0,131.9,98,0.01,,---,0.01,VWS V14.01,2013-03-16 19:13:00,
2013-03-16 15:18:00,33.0,32.6,29.74,ENE,69,2.0,131.9,98,0.01,,---,0.01,VWS V14.01,2013-03-16 19:18:00,
2013-03-16 15:23:00,31.9,31.6,29.74,East,90,5.3,131.9,99,0.01,,---,0.01,VWS V14.01,2013-03-16 19:23:00,
2013-03-16 15:28:00,32.7,32.5,29.74,NE,51,2.1,131.9,99,0.01,,---,0.01,VWS V14.01,2013-03-16 19:28:00,
2013-03-16 15:33:00,32.3,32.2,29.73,East,91,3.0,131.9,100,0.01,,---,0.01,VWS V14.01,2013-03-16 19:33:00,
2013-03-16 15:38:00,32.2,32.2,29.72,East,80,4.2,131.9,100,0.01,,---,0.01,VWS V14.01,2013-03-16 19:38:00,
2013-03-16 15:43:00,32.2,32.2,29.72,East,93,3.7,131.9,100,0.01,,---,0.01,VWS V14.01,2013-03-16 19:43:00,
2013-03-16 15:48:00,31.9,31.9,29.71,ESE,118,3.0,131.9,100,0.01,,---,0.01,VWS V14.01,2013-03-16 19:48:00,
2013-03-16 15:53:00,32.1,32.1,29.72,NNE,30,2.1,131.9,100,0.01,,---,0.01,VWS V14.01,2013-03-16 19:53:00,
2013-03-16 15:58:00,31.8,31.8,29.72,ESE,120,3.9,131.9,100,0.01,,---,0.01,VWS V14.01,2013-03-16 19:58:00,
2013-03-16 16:03:00,32.3,32.3,29.73,East,101,1.7,131.9,100,0.01,,---,0.01,VWS V14.01,2013-03-16 20:03:00,
2013-03-16 16:08:00,32.1,32.1,29.73,East,91,4.8,131.9,100,66.37,,---,0.01,VWS V14.01,2013-03-16 20:08:00,
2013-03-16 16:13:00,32.4,32.4,29.73,NE,38,2.5,131.9,100,0.01,,---,0.01,VWS V14.01,2013-03-16 20:13:00,
2013-03-16 16:18:00,32.0,32.0,29.72,East,93,0.0,131.9,100,0.01,,---,0.01,VWS V14.01,2013-03-16 20:18:00,
2013-03-16 16:23:00,32.3,32.3,29.72,ENE,65,0.5,131.9,100,0.01,,---,0.01,VWS V14.01,2013-03-16 20:23:00,
2013-03-16 16:28:00,32.6,32.6,29.73,East,83,0.0,131.9,100,0.01,,---,0.01,VWS V14.01,2013-03-16 20:28:00,
2013-03-16 16:33:00,32.3,32.3,29.72,ENE,73,0.0,131.9,100,66.37,,---,0.01,VWS V14.01,2013-03-16 20:33:00,
2013-03-16 16:38:00,32.1,32.1,29.72,ESE,108,4.4,131.9,100,0.01,,---,0.01,VWS V14.01,2013-03-16 20:38:00,
2013-03-16 16:43:00,32.5,32.5,29.72,SE,128,3.9,131.9,100,66.37,,---,0.01,VWS V14.01,2013-03-16 20:43:00,
2013-03-16 16:48:00,32.2,32.2,29.72,ESE,112,0.7,131.9,100,0.01,,---,0.01,VWS V14.01,2013-03-16 20:48:00,
2013-03-16 16:53:00,32.3,32.3,29.72,ENE,73,0.0,131.9,100,0.01,,---,0.01,VWS V14.01,2013-03-16 20:53:00,
2013-03-16 16:58:00,32.3,32.3,29.72,East,83,3.0,131.9,100,0.01,,---,0.01,VWS V14.01,2013-03-16 20:58:00,
2013-03-16 17:03:00,32.3,32.3,29.72,East,80,0.0,131.9,100,0.01,,---,0.01,VWS V14.01,2013-03-16 21:03:00,
2013-03-16 17:08:00,32.4,32.4,29.72,ESE,105,2.0,131.9,100,66.21,,---,0.01,VWS V14.01,2013-03-16 21:08:00,
2013-03-16 17:13:00,32.5,32.5,29.73,South,169,0.0,131.9,100,0.01,,---,0.01,VWS V14.01,2013-03-16 21:13:00,
2013-03-16 17:18:00,32.2,32.2,29.73,East,87,4.3,131.9,100,0.01,,---,0.01,VWS V14.01,2013-03-16 21:18:00,
2013-03-16 17:23:00,32.4,32.4,29.72,ESE,108,2.7,131.9,100,0.01,,---,0.01,VWS V14.01,2013-03-16 21:23:00,
2013-03-16 17:28:00,32.5,32.5,29.73,East,93,3.2,131.9,100,0.01,,---,0.01,VWS V14.01,2013-03-16 21:28:00,
2013-03-16 17:33:00,32.0,32.0,29.73,ENE,69,5.1,131.9,100,0.01,,---,0.01,VWS V14.01,2013-03-16 21:33:00,
2013-03-16 17:38:00,32.3,32.3,29.73,NNE,14,0.0,131.9,100,0.01,,---,0.01,VWS V14.01,2013-03-16 21:38:00,
2013-03-16 17:43:00,32.1,32.1,29.72,NNE,14,0.0,131.9,100,0.01,,---,0.01,VWS V14.01,2013-03-16 21:43:00,
2013-03-16 17:48:00,32.5,32.5,29.73,NNE,14,0.0,131.9,100,0.01,,---,0.01,VWS V14.01,2013-03-16 21:48:00,
2013-03-16 17:53:00,32.0,32.0,29.73,East,84,3.3,131.9,100,0.01,,---,0.01,VWS V14.01,2013-03-16 21:53:00,
2013-03-16 17:58:00,32.3,32.3,29.73,NE,53,4.3,131.9,100,0.01,,---,0.01,VWS V14.01,2013-03-16 21:58:00,
2013-03-16 18:03:00,32.1,32.1,29.73,East,94,0.0,131.9,100,0.01,,---,0.01,VWS V14.01,2013-03-16 22:03:00,
2013-03-16 18:08:00,32.2,32.2,29.74,East,94,0.0,131.9,100,0.01,,---,0.01,VWS V14.01,2013-03-16 22:08:00,
2013-03-16 18:13:00,32.1,32.1,29.73,East,94,0.0,131.9,100,0.01,,---,0.01,VWS V14.01,2013-03-16 22:13:00,
2013-03-16 18:18:00,32.1,32.1,29.73,East,94,0.0,131.9,100,0.01,,---,0.01,VWS V14.01,2013-03-16 22:18:00,
2013-03-16 18:23:00,32.6,32.6,29.73,East,94,0.0,131.9,100,0.01,,---,0.01,VWS V14.01,2013-03-16 22:23:00,
2013-03-16 18:28:00,32.1,32.1,29.73,East,94,0.0,131.9,100,0.01,,---,0.01,VWS V14.01,2013-03-16 22:28:00,
2013-03-16 18:33:00,32.3,32.3,29.74,East,94,0.0,131.9,100,66.05,,---,0.01,VWS V14.01,2013-03-16 22:33:00,
2013-03-16 18:38:00,32.3,32.3,29.74,NE,34,0.0,131.9,100,0.01,,---,0.01,VWS V14.01,2013-03-16 22:38:00,
2013-03-16 18:43:00,32.4,32.4,29.73,NE,46,0.0,131.9,100,0.01,,---,0.01,VWS V14.01,2013-03-16 22:43:00,
2013-03-16 18:48:00,32.2,32.2,29.74,NE,46,0.0,131.9,100,0.01,,---,0.01,VWS V14.01,2013-03-16 22:48:00,
2013-03-16 18:53:00,31.8,31.8,29.74,NE,46,0.0,131.9,100,0.01,,---,0.01,VWS V14.01,2013-03-16 22:53:00,
2013-03-16 18:58:00,32.3,32.3,29.73,NE,46,0.0,131.9,100,0.01,,---,0.01,VWS V14.01,2013-03-16 22:58:00,
2013-03-16 19:03:00,32.1,32.1,29.73,NE,46,0.0,131.9,100,0.01,,---,0.01,VWS V14.01,2013-03-16 23:03:00,
2013-03-16 19:08:00,32.1,32.1,29.74,NE,51,0.0,131.9,100,0.01,,---,0.01,VWS V14.01,2013-03-16 23:08:00,
2013-03-16 19:13:00,32.1,32.1,29.74,NNE,32,0.0,131.9,100,0.01,,---,0.01,VWS V14.01,2013-03-16 23:13:00,
2013-03-16 19:18:00,32.6,32.6,29.74,NNE,32,0.0,131.9,100,0.01,,---,0.01,VWS V14.01,2013-03-16 23:18:00,
2013-03-16 19:22:00,32.8,32.8,29.77,ENE,63,0.0,131.9,100,0.01,,---,0.01,VWS V14.01,2013-03-16 23:22:00,
2013-03-16 19:23:00,31.7,31.7,29.74,NNE,32,0.0,131.9,100,0.01,,---,0.01,VWS V14.01,2013-03-16 23:23:00,
2013-03-16 19:24:00,32.5,32.5,29.77,ENE,63,0.0,131.9,100,0.01,,---,0.01,VWS V14.01,2013-03-16 23:24:00,
2013-03-16 19:25:00,32.3,32.3,29.77,ENE,63,0.0,131.9,100,0.01,,---,0.01,VWS V14.01,2013-03-16 23:25:00,
2013-03-16 19:26:00,32.4,32.4,29.78,ENE,63,0.0,131.9,100,0.01,,---,0.01,VWS V14.01,2013-03-16 23:26:00,
2013-03-16 19:28:00,32.4,32.4,29.74,ENE,75,0.0,131.9,100,0.01,,---,0.01,VWS V14.01,2013-03-16 23:28:00,
2013-03-16 19:33:00,32.2,32.2,29.75,NNE,18,0.0,131.9,100,0.01,,---,0.01,VWS V14.01,2013-03-16 23:33:00,
2013-03-16 19:38:00,31.7,31.7,29.75,NNE,18,0.0,131.9,100,0.01,,---,0.01,VWS V14.01,2013-03-16 23:38:00,
2013-03-16 19:43:00,32.2,32.2,29.76,NNE,28,0.0,131.9,100,0.01,,---,0.01,VWS V14.01,2013-03-16 23:43:00,
2013-03-16 19:48:00,32.3,32.3,29.75,NE,42,0.0,131.9,100,0.01,,---,0.01,VWS V14.01,2013-03-16 23:48:00,
2013-03-16 19:53:00,32.0,32.0,29.76,North,3,4.3,131.9,100,0.00,,---,0.01,VWS V14.01,2013-03-16 23:53:00,
2013-03-16 19:58:00,32.5,32.5,29.76,NNE,20,2.1,131.9,100,0.01,,---,0.01,VWS V14.01,2013-03-16 23:58:00,
2013-03-16 20:03:00,31.7,31.7,29.76,NNE,25,0.0,131.9,100,0.01,,---,0.01,VWS V14.01,2013-03-17 00:03:00,
2013-03-16 20:08:00,32.8,32.8,29.76,NNE,25,0.0,131.9,100,0.01,,---,0.01,VWS V14.01,2013-03-17 00:08:00,
2013-03-16 20:13:00,32.0,32.0,29.77,NNE,20,2.2,131.9,100,0.01,,---,0.01,VWS V14.01,2013-03-17 00:13:00,
2013-03-16 20:18:00,32.1,32.1,29.76,NNE,27,0.0,131.9,100,0.01,,---,0.01,VWS V14.01,2013-03-17 00:18:00,
2013-03-16 20:23:00,32.4,32.4,29.77,ENE,63,0.0,131.9,100,0.01,,---,0.01,VWS V14.01,2013-03-17 00:23:00,
2013-03-16 20:28:00,32.2,32.2,29.78,ENE,63,0.0,131.9,100,0.01,,---,0.01,VWS V14.01,2013-03-17 00:28:00,
2013-03-16 20:33:00,31.9,31.9,29.78,NNE,32,0.0,131.9,100,0.01,,---,0.01,VWS V14.01,2013-03-17 00:33:00,
2013-03-16 20:38:00,32.2,32.2,29.79,NNE,32,0.0,131.9,100,0.01,,---,0.01,VWS V14.01,2013-03-17 00:38:00,
2013-03-16 20:43:00,31.7,31.7,29.79,NNE,32,0.0,131.9,100,0.01,,---,0.01,VWS V14.01,2013-03-17 00:43:00,
2013-03-16 20:48:00,32.3,32.3,29.79,NNE,32,0.0,131.9,100,0.01,,---,0.01,VWS V14.01,2013-03-17 00:48:00,
2013-03-16 20:53:00,32.4,32.4,29.79,NNE,32,0.0,131.9,100,0.01,,---,0.01,VWS V14.01,2013-03-17 00:53:00,
2013-03-16 20:58:00,32.4,32.4,29.79,NNE,32,0.0,131.9,100,0.01,,---,0.01,VWS V14.01,2013-03-17 00:58:00,
2013-03-16 21:03:00,32.5,32.5,29.79,NNE,32,0.0,131.9,100,0.01,,---,0.01,VWS V14.01,2013-03-17 01:03:00,
2013-03-16 21:08:00,32.4,32.4,29.80,NNE,32,0.0,131.9,100,0.01,,---,0.01,VWS V14.01,2013-03-17 01:08:00,
2013-03-16 21:13:00,32.4,32.4,29.80,NNE,32,0.0,131.9,100,0.01,,---,0.01,VWS V14.01,2013-03-17 01:13:00,
2013-03-16 21:18:00,32.5,32.5,29.80,NNE,32,0.0,131.9,100,0.01,,---,0.01,VWS V14.01,2013-03-17 01:18:00,
2013-03-16 21:23:00,32.5,32.5,29.80,NNE,32,0.0,131.9,100,0.01,,---,0.01,VWS V14.01,2013-03-17 01:23:00,
2013-03-16 21:25:00,32.7,32.7,29.85,NNW,340,0.0,131.9,100,0.02,,---,0.02,VWS V14.01,2013-03-17 01:25:00,
2013-03-16 21:28:00,32.4,32.4,29.81,NNE,32,0.0,131.9,100,0.02,,---,0.02,VWS V14.01,2013-03-17 01:28:00,
2013-03-16 21:33:00,32.3,32.3,29.81,NNE,32,0.0,131.9,100,0.02,,---,0.02,VWS V14.01,2013-03-17 01:33:00,
2013-03-16 21:38:00,32.1,32.1,29.81,North,357,0.0,131.9,100,0.02,,---,0.02,VWS V14.01,2013-03-17 01:38:00,
2013-03-16 21:43:00,32.3,32.3,29.81,North,357,0.0,131.9,100,0.02,,---,0.02,VWS V14.01,2013-03-17 01:43:00,
2013-03-16 21:48:00,32.3,32.3,29.81,North,357,0.0,131.9,100,0.02,,---,0.02,VWS V14.01,2013-03-17 01:48:00,
2013-03-16 21:53:00,32.4,32.4,29.82,North,357,0.0,131.9,100,0.02,,---,0.02,VWS V14.01,2013-03-17 01:53:00,
2013-03-16 21:58:00,32.5,32.5,29.81,North,357,0.0,131.9,100,0.00,,---,0.02,VWS V14.01,2013-03-17 01:58:00,
2013-03-16 22:03:00,32.6,32.6,29.82,North,3,0.0,131.9,100,0.02,,---,0.02,VWS V14.01,2013-03-17 02:03:00,
2013-03-16 22:08:00,32.6,32.6,29.82,North,350,5.4,131.9,100,0.02,,---,0.02,VWS V14.01,2013-03-17 02:08:00,
2013-03-16 22:13:00,32.6,32.6,29.82,North,4,2.6,131.9,100,0.02,,---,0.02,VWS V14.01,2013-03-17 02:13:00,
2013-03-16 22:18:00,32.8,32.8,29.82,North,353,2.7,131.9,100,0.02,,---,0.02,VWS V14.01,2013-03-17 02:18:00,
2013-03-16 22:23:00,32.5,32.5,29.82,NNE,13,0.0,131.9,100,0.00,,---,0.02,VWS V14.01,2013-03-17 02:23:00,
2013-03-16 22:28:00,32.7,32.7,29.83,North,350,2.7,131.9,100,0.02,,---,0.02,VWS V14.01,2013-03-17 02:28:00,
2013-03-16 22:29:00,32.6,32.6,29.85,NNW,340,0.0,131.9,100,0.02,,---,0.02,VWS V14.01,2013-03-17 02:29:00,
2013-03-16 22:30:00,33.0,33.0,29.85,NNW,340,0.0,131.9,100,0.02,,---,0.02,VWS V14.01,2013-03-17 02:30:00,
2013-03-16 22:31:00,33.0,33.0,29.85,NNW,340,0.0,131.9,100,0.02,,---,0.02,VWS V14.01,2013-03-17 02:31:00,
2013-03-16 22:33:00,32.9,32.9,29.83,NNW,340,0.0,131.9,100,0.02,,---,0.02,VWS V14.01,2013-03-17 02:33:00,
2013-03-16 22:38:00,33.0,33.0,29.83,NNW,340,0.0,131.9,100,0.02,,---,0.02,VWS V14.01,2013-03-17 02:38:00,
2013-03-16 22:43:00,32.6,32.6,29.84,NNW,340,0.0,131.9,100,0.02,,---,0.02,VWS V14.01,2013-03-17 02:43:00,
2013-03-16 22:48:00,32.5,32.5,29.84,NNW,340,0.0,131.9,100,0.00,,---,0.02,VWS V14.01,2013-03-17 02:48:00,
2013-03-16 22:53:00,32.5,32.5,29.84,NNW,340,0.0,131.9,100,0.02,,---,0.02,VWS V14.01,2013-03-17 02:53:00,
2013-03-16 22:58:00,32.9,32.9,29.84,NNW,340,0.0,131.9,100,0.02,,---,0.02,VWS V14.01,2013-03-17 02:58:00,
2013-03-16 23:02:00,32.8,32.8,29.86,NNW,340,0.0,131.9,100,0.02,,---,0.02,VWS V14.01,2013-03-17 03:02:00,
2013-03-16 23:03:00,32.7,32.7,29.84,NNW,340,0.0,131.9,100,0.02,,---,0.02,VWS V14.01,2013-03-17 03:03:00,
2013-03-16 23:08:00,32.4,32.4,29.84,NNW,340,0.0,131.9,100,0.02,,---,0.02,VWS V14.01,2013-03-17 03:08:00,
2013-03-16 23:13:00,32.7,32.7,29.84,NNW,340,0.0,131.9,100,0.00,,---,0.02,VWS V14.01,2013-03-17 03:13:00,
2013-03-16 23:18:00,32.9,32.9,29.84,NNW,340,0.0,131.9,100,0.02,,---,0.02,VWS V14.01,2013-03-17 03:18:00,
2013-03-16 23:23:00,32.4,32.4,29.85,NNW,340,0.0,131.9,100,0.02,,---,0.02,VWS V14.01,2013-03-17 03:23:00,
2013-03-16 23:28:00,32.8,32.8,29.85,NNW,340,0.0,131.9,100,0.02,,---,0.02,VWS V14.01,2013-03-17 03:28:00,
2013-03-16 23:33:00,33.1,33.1,29.85,NNW,340,0.0,131.9,100,0.02,,---,0.02,VWS V14.01,2013-03-17 03:33:00,
2013-03-16 23:38:00,32.4,32.4,29.85,NNW,340,0.0,131.9,100,0.02,,---,0.02,VWS V14.01,2013-03-17 03:38:00,
2013-03-16 23:43:00,32.9,32.9,29.85,NNW,340,0.0,131.9,100,0.02,,---,0.02,VWS V14.01,2013-03-17 03:43:00,
2013-03-16 23:48:00,32.8,32.8,29.85,NNW,340,0.0,131.9,100,0.02,,---,0.02,VWS V14.01,2013-03-17 03:48:00,
2013-03-16 23:53:00,32.9,32.9,29.86,NNW,340,0.0,131.9,100,0.02,,---,0.02,VWS V14.01,2013-03-17 03:53:00,
2013-03-16 23:58:00,32.5,32.5,29.86,NNW,340,0.0,131.9,100,0.02,,---,0.02,VWS V14.01,2013-03-17 03:58:00,